Temp
12 12 12 11 12 11 11 10 11 11 11 11 12 12 11 11 11 12 12 13 13 13
11 11 10 11 10 9 9 9 9 10 10 10 10 10 10 10 10 11 12 12 12 12
10 10 10 10 9 9 9 9 8 8 8 8 9 9 9 9 9 9 10 10 11 11
8 7 7 7 7 7 8 8 7 7 7 7 7 7 7 7 8 7 7 8 8 8
7 6 6 6 5 6 5 6 6 6 6 6 6 5 6 6 6 6 6 6 6 6
6 6 6 5 4 4 4 4 4 4 4 4 4 4 4 5 5 5 4 4 4 4
6 5 4 3 3 3 3 3 3 3 3 2 3 3 3 3 3 3 3 3 4 3
5 4 4 3 3 3 2 2 2 2 2 2 1 1 2 2 2 2 2 2 2 2
4 4 3 3 2 2 2 2 2 1 1 1 1 1 1 2 2 1 1 1 1 1
4 4 2 2 2 1 1 1 1 1 1 1 1 1 1 1 1 1 1 1 1 1
4 3 2 1 1 1 1 1 1 1 0 0 -0 -0 1 1 1 0 0 -0 -0 -1
3 2 1 1 1 1 1 0 0 0 0 -0 -1 0 1 0 -0 -0 -1 -1 -1 -1
2 2 1 1 0 0 0 0 -0 0 -0 -0 -1 -1 -0 -0 -1 -0 -1 -2 -2 -2
1 1 1 0 0 0 -0 -0 -0 -1 -1 -1 -1 -1 -1 -0 -1 -1 -1 -1 -1 -2
Height
812 814 815 815 816 816 816 815 814 814 814 814 813 812 811 810 810 808 807 806 805 806
811 812 813 813 813 814 814 814 813 813 812 811 811 809 808 808 807 805 804 803 802 802
809 810 811 812 811 811 811 812 812 810 810 809 808 807 806 805 803 803 802 801 801 801
810 810 811 812 811 810 809 808 809 809 807 807 806 805 804 803 802 802 801 801 800 801
809 809 809 810 810 808 809 807 806 807 806 805 804 804 804 802 802 802 802 802 801 801
805 808 808 808 808 808 806 806 806 805 806 804 803 803 801 801 802 801 801 801 801 802
803 804 806 807 805 806 804 805 805 805 804 803 801 801 798 801 802 801 802 802 800 801
803 802 804 802 805 804 804 804 805 804 803 802 800 802 799 801 801 800 802 803 805 803
798 800 801 802 801 801 804 804 805 803 803 803 802 801 802 804 802 803 802 805 808 806
797 799 799 798 800 801 803 804 803 803 803 803 803 804 804 804 804 805 804 807 810 805
794 796 797 797 798 799 800 801 804 804 804 805 803 805 805 805 807 806 807 809 808 808
793 793 793 794 795 798 799 801 803 803 804 804 805 805 806 807 808 808 808 809 808 810
789 790 791 792 794 797 799 801 803 803 805 804 806 806 807 808 809 809 808 809 810 810
786 788 789 792 794 795 798 800 802 803 804 805 806 808 808 807 807 807 809 810 809 810
Wind_Speed
4 3 3 3 3 4 4 4 7 8 8 10 11 11 11 10 11 12 15 17 19 19
4 4 4 5 5 4 5 5 6 7 7 8 8 8 8 7 7 8 11 10 12 13
5 6 6 6 5 6 6 7 7 7 7 7 7 7 7 5 6 5 7 6 4 7
3 4 4 4 6 7 7 8 7 7 7 6 6 6 5 4 4 3 3 3 4 4
4 4 4 4 5 6 5 6 6 6 5 5 5 3 2 1 1 0 1 1 2 2
5 4 4 4 4 4 4 3 3 3 3 2 3 2 0 1 1 3 3 3 2 1
6 5 5 4 4 3 2 2 2 1 1 1 2 2 2 2 3 3 3 3 4 4
7 6 6 5 5 4 4 3 3 2 1 0 1 3 5 6 7 8 8 8 9 10
7 6 6 7 6 5 6 5 5 3 3 3 4 5 6 8 10 9 10 10 11 12
10 9 8 7 7 8 8 7 6 5 6 6 6 6 8 9 9 9 9 7 5 4
11 10 10 9 9 9 9 9 9 8 7 6 6 7 9 9 9 9 8 6 5 4
12 11 10 10 10 12 12 12 11 10 9 10 8 8 9 8 8 7 5 3 3 2
12 12 12 12 14 14 14 13 11 11 11 9 8 8 7 6 5 4 3 3 3 3
12 12 14 15 15 16 15 13 11 11 10 9 7 7 7 6 4 3 4 5 4 4
Wind_Direction
191 196 210 227 239 243 239 248 259 269 276 278 279 277 275 270 267 266 262 257 252 251
195 209 218 234 234 236 255 258 269 272 273 276 278 280 280 266 266 268 263 260 248 243
198 214 227 234 237 244 255 265 272 272 273 278 283 285 288 288 276 262 254 240 200 202
201 218 233 241 247 248 253 259 264 266 267 273 279 284 289 290 281 262 244 238 208 194
215 237 238 251 265 259 253 255 250 254 253 253 261 282 296 313 306 2 90 170 146 121
203 231 244 244 252 261 247 244 246 237 253 252 252 246 178 72 89 99 93 102 105 113
205 211 218 235 263 261 242 227 226 233 251 279 252 224 138 129 141 147 127 123 115 99
206 199 209 206 235 245 234 233 229 225 263 220 181 208 155 151 143 133 127 113 104 98
197 200 205 196 201 211 217 207 207 184 150 128 104 121 151 153 139 136 126 120 122 118
198 202 208 200 206 200 199 195 180 167 157 121 121 131 151 145 142 146 143 149 162 131
203 203 201 201 201 198 191 186 181 163 151 140 126 140 148 144 147 145 145 142 119 94
206 201 195 199 198 200 189 184 180 172 174 157 141 151 150 157 147 150 143 133 103 129
203 201 199 200 197 195 191 185 184 180 175 165 163 176 182 178 174 170 169 185 189 185
200 201 209 201 194 189 187 187 188 190 189 185 187 194 195 189 182 188 202 217 209 215